Time,TemperatureF,DewpointF,PressureIn,WindDirection,WindDirectionDegrees,WindSpeedMPH,WindSpeedGustMPH,Humidity,HourlyPrecipIn,Conditions,Clouds,dailyrainin,SoftwareType,DateUTC
2013-09-28 00:13:00,47.0,34.0,-100.00,WSW,244,4.0,8.0,58,0.00,,,0.03,,2013-09-28 06:13:00,
2013-09-28 00:42:00,47.0,33.0,-100.00,SSW,200,5.0,6.0,59,0.00,,,0.03,,2013-09-28 06:42:00,
2013-09-28 01:12:00,47.0,33.0,-100.00,SSW,192,8.0,11.0,59,0.00,,,0.02,,2013-09-28 07:12:00,
2013-09-28 01:42:00,46.0,33.0,-100.00,SSW,195,9.0,10.0,60,0.00,,,0.02,,2013-09-28 07:42:00,
2013-09-28 02:13:00,46.0,33.0,-100.00,South,191,9.0,13.0,60,0.00,,,0.02,,2013-09-28 08:13:00,
2013-09-28 02:43:00,46.0,33.0,-100.00,South,186,11.0,14.0,60,0.00,,,0.02,,2013-09-28 08:43:00,
2013-09-28 03:11:00,47.0,34.0,-100.00,South,191,10.0,13.0,59,0.00,,,0.02,,2013-09-28 09:11:00,
2013-09-28 03:43:00,47.0,34.0,-100.00,SSW,193,11.0,15.0,60,0.00,,,0.02,,2013-09-28 09:43:00,
2013-09-28 04:12:00,46.0,34.0,-100.00,SSW,200,11.0,13.0,62,0.00,,,0.02,,2013-09-28 10:12:00,
2013-09-28 04:43:00,47.0,34.0,-100.00,SSW,192,12.0,14.0,60,0.00,,,0.02,,2013-09-28 10:43:00,
2013-09-28 05:12:00,47.0,35.0,-100.00,South,189,10.0,15.0,61,0.00,,,0.02,,2013-09-28 11:12:00,
2013-09-28 05:43:00,48.0,35.0,-100.00,South,189,11.0,13.0,61,0.00,,,0.02,,2013-09-28 11:43:00,
2013-09-28 06:12:00,48.0,35.0,-100.00,SSW,193,13.0,16.0,60,0.00,,,0.02,,2013-09-28 12:12:00,
2013-09-28 06:42:00,48.0,35.0,-100.00,SSW,193,14.0,18.0,60,0.00,,,0.00,,2013-09-28 12:42:00,
2013-09-28 07:12:00,48.0,35.0,-100.00,South,191,13.0,18.0,60,0.00,,,0.00,,2013-09-28 13:12:00,
2013-09-28 07:42:00,48.0,34.0,-100.00,SSW,195,15.0,17.0,57,0.00,,,0.00,,2013-09-28 13:42:00,
2013-09-28 08:12:00,49.0,34.0,-100.00,SSW,192,13.0,18.0,57,0.00,,,0.00,,2013-09-28 14:12:00,
2013-09-28 08:42:00,49.0,34.0,-100.00,SSW,198,16.0,19.0,56,0.00,,,0.00,,2013-09-28 14:42:00,
2013-09-28 09:12:00,49.0,34.0,-100.00,SSW,202,15.0,18.0,56,0.00,,,0.00,,2013-09-28 15:12:00,
2013-09-28 09:44:00,49.0,34.0,-100.00,South,189,16.0,20.0,54,0.00,,,0.00,,2013-09-28 15:44:00,
2013-09-28 10:14:00,50.0,33.0,-100.00,South,176,18.0,24.0,52,0.00,,,0.00,,2013-09-28 16:14:00,
2013-09-28 10:43:00,51.0,33.0,-100.00,South,185,14.0,18.0,49,0.00,,,0.00,,2013-09-28 16:43:00,
2013-09-28 11:13:00,52.0,33.0,-100.00,South,188,15.0,18.0,47,0.00,,,0.00,,2013-09-28 17:13:00,
2013-09-28 11:23:00,52.0,33.0,-100.00,South,188,15.0,18.0,47,0.00,,,0.00,,2013-09-28 17:23:00,
2013-09-28 11:43:00,54.0,34.0,-100.00,South,184,17.0,22.0,47,0.00,,,0.00,,2013-09-28 17:43:00,
2013-09-28 12:12:00,55.0,33.0,-100.00,South,179,16.0,22.0,43,0.00,,,0.00,,2013-09-28 18:12:00,
2013-09-28 12:42:00,58.0,32.0,-100.00,SSW,210,17.0,24.0,37,0.00,,,0.00,,2013-09-28 18:42:00,
2013-09-28 13:00:00,61.0,33.0,-100.00,SW,222,11.0,16.0,34,0.00,,,0.00,,2013-09-28 19:00:00,
2013-09-28 13:11:00,59.0,31.0,-100.00,SSW,205,14.0,22.0,34,0.00,,,0.00,,2013-09-28 19:11:00,
2013-09-28 13:42:00,61.0,33.0,-100.00,SW,222,11.0,16.0,34,0.00,,,0.00,,2013-09-28 19:42:00,
2013-09-28 13:52:00,61.0,33.0,-100.00,SW,222,11.0,16.0,34,0.00,,,0.00,,2013-09-28 19:52:00,
2013-09-28 14:22:00,61.0,34.0,-100.00,SSW,203,15.0,26.0,35,0.00,,,0.00,,2013-09-28 20:22:00,
2013-09-28 14:32:00,61.0,34.0,-100.00,SSW,203,15.0,26.0,35,0.00,,,0.00,,2013-09-28 20:32:00,
2013-09-28 14:52:00,62.0,32.0,-100.00,SSW,196,17.0,27.0,32,0.00,,,0.00,,2013-09-28 20:52:00,
2013-09-28 15:02:00,62.0,32.0,-100.00,SSW,196,17.0,27.0,32,0.00,,,0.00,,2013-09-28 21:02:00,
2013-09-28 15:22:00,63.0,33.0,-100.00,SSW,209,12.0,19.0,32,0.00,,,0.00,,2013-09-28 21:22:00,
2013-09-28 15:34:00,63.0,33.0,-100.00,SSW,209,12.0,19.0,32,0.00,,,0.00,,2013-09-28 21:34:00,
2013-09-28 15:55:00,63.0,32.0,-100.00,SW,219,10.0,15.0,31,0.00,,,0.00,,2013-09-28 21:55:00,
2013-09-28 16:04:00,63.0,32.0,-100.00,SW,219,10.0,15.0,31,0.00,,,0.00,,2013-09-28 22:04:00,
2013-09-28 16:23:00,64.0,33.0,-100.00,SW,215,11.0,15.0,31,0.00,,,0.00,,2013-09-28 22:23:00,
2013-09-28 16:33:00,64.0,33.0,-100.00,SW,215,11.0,15.0,31,0.00,,,0.00,,2013-09-28 22:33:00,
2013-09-28 16:54:00,63.0,31.0,-100.00,SSW,202,16.0,21.0,30,0.00,,,0.00,,2013-09-28 22:54:00,
2013-09-28 17:03:00,63.0,31.0,-100.00,SSW,202,16.0,21.0,30,0.00,,,0.00,,2013-09-28 23:03:00,
2013-09-28 17:22:00,63.0,33.0,-100.00,SSW,198,13.0,21.0,33,0.00,,,0.00,,2013-09-28 23:22:00,
2013-09-28 17:34:00,63.0,33.0,-100.00,SSW,198,13.0,21.0,33,0.00,,,0.00,,2013-09-28 23:34:00,
2013-09-28 17:52:00,62.0,33.0,-100.00,SW,215,10.0,15.0,33,0.00,,,0.00,,2013-09-28 23:52:00,
2013-09-28 18:01:00,62.0,33.0,-100.00,SW,215,10.0,15.0,33,0.00,,,0.00,,2013-09-29 00:01:00,
2013-09-28 18:22:00,61.0,33.0,-100.00,SSW,195,13.0,18.0,35,0.00,,,0.00,,2013-09-29 00:22:00,
2013-09-28 18:32:00,61.0,33.0,-100.00,SSW,195,13.0,18.0,35,0.00,,,0.00,,2013-09-29 00:32:00,
2013-09-28 18:52:00,61.0,32.0,-100.00,SSW,200,18.0,24.0,34,0.00,,,0.00,,2013-09-29 00:52:00,
2013-09-28 19:02:00,61.0,32.0,-100.00,SSW,200,18.0,24.0,34,0.00,,,0.00,,2013-09-29 01:02:00,
2013-09-28 19:21:00,60.0,32.0,-100.00,SSW,196,12.0,15.0,34,0.00,,,0.00,,2013-09-29 01:21:00,
2013-09-28 19:32:00,60.0,32.0,-100.00,SSW,196,12.0,15.0,34,0.00,,,0.00,,2013-09-29 01:32:00,
2013-09-28 19:52:00,59.0,32.0,-100.00,SSW,198,8.0,11.0,35,0.00,,,0.00,,2013-09-29 01:52:00,
2013-09-28 20:03:00,59.0,32.0,-100.00,SSW,198,8.0,11.0,35,0.00,,,0.00,,2013-09-29 02:03:00,
2013-09-28 20:22:00,59.0,30.0,-100.00,SSW,192,17.0,24.0,33,0.00,,,0.00,,2013-09-29 02:22:00,
2013-09-28 20:32:00,59.0,30.0,-100.00,SSW,192,17.0,24.0,33,0.00,,,0.00,,2013-09-29 02:32:00,
2013-09-28 20:53:00,59.0,29.0,-100.00,South,185,19.0,25.0,32,0.00,,,0.00,,2013-09-29 02:53:00,
2013-09-28 21:03:00,59.0,29.0,-100.00,South,185,19.0,25.0,32,0.00,,,0.00,,2013-09-29 03:03:00,
2013-09-28 21:23:00,58.0,29.0,-100.00,South,191,19.0,24.0,32,0.00,,,0.00,,2013-09-29 03:23:00,
2013-09-28 21:34:00,58.0,29.0,-100.00,South,191,19.0,24.0,32,0.00,,,0.00,,2013-09-29 03:34:00,
2013-09-28 21:55:00,58.0,28.0,-100.00,South,182,16.0,22.0,32,0.00,,,0.00,,2013-09-29 03:55:00,
2013-09-28 22:00:00,58.0,29.0,-100.00,South,179,16.0,24.0,33,0.00,,,0.00,,2013-09-29 04:00:00,
2013-09-28 22:02:00,-999.0,-99.9,-100.00,South,182,16.0,22.0,-999,-99.99,,,-99.99,,2013-09-29 04:02:00,
2013-09-28 22:24:00,58.0,29.0,-100.00,South,185,17.0,23.0,32,0.00,,,0.00,,2013-09-29 04:24:00,
2013-09-28 22:34:00,58.0,29.0,-100.00,South,185,17.0,23.0,32,0.00,,,0.00,,2013-09-29 04:34:00,
2013-09-28 22:54:00,58.0,29.0,-100.00,South,179,16.0,24.0,33,0.00,,,0.00,,2013-09-29 04:54:00,
2013-09-28 23:22:00,58.0,29.0,-100.00,South,189,12.0,16.0,32,0.00,,,0.00,,2013-09-29 05:22:00,
2013-09-28 23:43:00,58.0,29.0,-100.00,South,184,13.0,16.0,32,0.00,,,0.00,,2013-09-29 05:43:00,
2013-09-28 23:53:00,58.0,29.0,-100.00,South,185,11.0,19.0,33,0.00,,,0.00,,2013-09-29 05:53:00,